Terminal Aerodrome Forecast
Issued by NWS Portland, OR

Home | Current Version | Previous Version | Text Only | Print | Product List | Glossary On
Versions: 1 2 3 4 5 6 7 8 9 10 11 12 13 14 15 16 17 18 19 20 21 22 23 24 25 26 27 28 29 30
000
FTUS46 KPQR 230520
TAFEUG
TAF
KEUG 230520Z 2306/2406 VRB03KT P6SM FEW200
     FM231900 36009KT P6SM SKC
     FM232200 02014KT P6SM SKC=

USA.gov is the U.S. government's official web portal to all federal, state and local government web resources and services.